This demonstration page uses our WeatherBlox Daily Observations layout. Learn more.

Left ArrowRight Arrow

38.88101, -77.10428

Hourly Observations for May 30, 2020

Temp ( °F °C ) Dew Point ( °F °C ) Humidity (%) Winds ( mph kmh ) Pressure ( in mb ) Visibility ( mi km ) Precip ( " mm )
12:52 am 00:52 Cloudy with Light Rain 70 21.1 64 17.8 82 82 W 5 7 29.92 1013 10 16.0934 0.01 0.254
1:52 am 01:52 Cloudy 69 20.6 65 18.3 87 87 S 7 11 29.93 1014 10 16.0934 0.001 0.001
2:52 am 02:52 Cloudy 69 20.6 65 18.3 87 87 Calm 29.92 1013 10 16.0934 0 0
3:52 am 03:52 Cloudy 69 20.6 65 18.3 87 87 S 3 6 29.93 1013 10 16.0934 0.001 0.001
4:52 am 04:52 Cloudy 69 20.6 65 18.3 87 87 WSW 5 7 29.94 1014 10 16.0934 0 0
5:52 am 05:52 Mostly Cloudy 71 21.7 61 16.1 71 71 NW 9 15 29.95 1014 10 16.0934 0 0
6:52 am 06:52 Mostly Cloudy 69 20.6 63 17.2 81 81 N 7 11 29.96 1015 10 16.0934 0 0
7:52 am 07:52 Partly Cloudy 73 22.8 62 16.7 69 69 NW 8 13 29.98 1015 10 16.0934 0 0
8:52 am 08:52 Mostly Cloudy 74 23.3 62 16.7 67 67 NNW 14 22 29.99 1016 10 16.0934 0 0
9:52 am 09:52 Partly Cloudy 75 23.9 59 15 58 58 NW 9 15 29.98 1015 10 16.0934 0 0
10:52 am 10:52 Partly Cloudy 76 24.4 58 14.4 54 54 NNW 13 20 29.98 1015 10 16.0934 0 0
11:52 am 11:52 Partly Cloudy 78 25.6 56 13.3 47 47 NW 5 7 29.97 1015 10 16.0934 0 0
12:52 pm 12:52 Mostly Cloudy 80 26.7 51 10.6 37 37 N 7 11 29.96 1015 10 16.0934 0 0
1:52 pm 13:52 Partly Cloudy 83 28.3 48 8.9 30 30 NNE 8 13 29.95 1014 10 16.0934 0 0
2:52 pm 14:52 Mostly Sunny 83 28.3 48 8.9 30 30 Calm 29.94 1014 10 16.0934 0 0
3:52 pm 15:52 Mostly Sunny 82 27.8 50 10 33 33 NNW 10 17 29.93 1014 10 16.0934 0 0
4:52 pm 16:52 Partly Cloudy 83 28.3 49 9.4 31 31 NW 14 22 29.93 1014 10 16.0934 0 0
5:52 pm 17:52 Partly Cloudy 82 27.8 50 10 33 33 NW 9 15 29.92 1013 10 16.0934 0 0
6:52 pm 18:52 Partly Cloudy 81 27.2 51 10.6 35 35 NNW 10 17 29.92 1013 10 16.0934 0 0
7:52 pm 19:52 Partly Cloudy 78 25.6 52 11.1 40 40 N 6 9 29.93 1014 10 16.0934 0 0
8:52 pm 20:52 Partly Cloudy 78 25.6 51 10.6 39 39 WNW 5 7 29.95 1014 10 16.0934 0 0
9:52 pm 21:52 Partly Cloudy 76 24.4 52 11.1 43 43 NNW 14 22 29.98 1015 10 16.0934 0 0
10:52 pm 22:52 Partly Cloudy 74 23.3 52 11.1 46 46 NNW 13 20 29.99 1016 10 16.0934 0 0
11:52 pm 23:52 Mostly Cloudy 72 22.2 52 11.1 50 50 NNW 12 19 30 1016 10 16.0934 0 0

Powered by AerisWeather